Thunder radar more information blitzortung!


Löydät sääaseman tiedot myös:

European Weather Network

Finland Weather Exchange

Weather Underground

AWEKAS



Weather Underground säähistoriasivu

Päivittäin yhteenveto Elokuu 30, 2017 Yksiköt:  Englantilaiset    Metriset   Molemmat
« Edellinen Päivä
Seuraava Päivä »
Päivittäin Viikoittain Kuukausittain Vuosittain Mukautettu
  Korkea: Matala: Keskiarvo:
Lämpötila: TemperatureC °F 11.5 °F 14.9 °F
Kastepiste: DewpointC °F 10.7 °F 13.6 °F
Kosteus: Humidity % 79 % 92 %
Tuulen nopeus: WindSpeedKMH mph 0.0 mph 3.4 mph
Tuulenpuuska: WindSpeedGustKMH mph - -
Tuuli:- - SSW
Ilmanpaine: PressurehPa in 1001.2 in -
Sade: 7.6 in    
Historical Graphs
 
 
Taulukkotiedot Elokuu 30, 2017
Aika Lämpötila Kastepiste Ilmanpaine Tuuli Tuulen nopeus Tuulenpuuska Kosteus Sademäärä (tunneittain)
TemperatureC °F DewpointC °F PressurehPa in Calm     Humidity % HourlyPrecipMM in
00:00 15.1 °F 14.5 °F 1004.3 in SSW 4.8 mph 12.9 mph 96 % 0.0 in
00:15 15.2 °F 14.5 °F 1004.3 in SSW 4.8 mph 19.3 mph 96 % 0.0 in
00:30 15.1 °F 14.5 °F 1004.3 in SSW 4.8 mph 16.1 mph 96 % 0.3 in
00:45 15.1 °F 14.4 °F 1003.9 in SSW 6.4 mph 17.7 mph 96 % 0.8 in
01:00 15.0 °F 14.4 °F 1003.9 in SSW 4.8 mph 12.9 mph 96 % 1.3 in
01:15 15.0 °F 14.4 °F 1003.6 in SSW 4.8 mph 17.7 mph 96 % 1.5 in
01:30 15.0 °F 14.5 °F 1003.6 in South 4.8 mph 16.1 mph 97 % 1.8 in
01:45 15.0 °F 14.5 °F 1003.6 in SSW 4.8 mph 12.9 mph 97 % 1.8 in
02:00 15.1 °F 14.6 °F 1003.6 in SSW 6.4 mph 19.3 mph 97 % 1.5 in
02:15 15.1 °F 14.6 °F 1003.6 in SSW 4.8 mph 12.9 mph 97 % 1.3 in
02:30 15.1 °F 14.6 °F 1003.3 in SSW 6.4 mph 14.5 mph 97 % 0.8 in
02:45 15.1 °F 14.6 °F 1003.3 in SSW 6.4 mph 22.5 mph 97 % 0.5 in
03:00 15.1 °F 14.6 °F 1002.9 in SSW 4.8 mph 19.3 mph 97 % 0.5 in
03:15 15.1 °F 14.6 °F 1002.9 in SSW 6.4 mph 17.7 mph 97 % 0.3 in
03:30 15.1 °F 14.5 °F 1002.9 in SSW 4.8 mph 20.9 mph 96 % 0.5 in
03:45 15.1 °F 14.6 °F 1002.9 in South 6.4 mph 17.7 mph 97 % 1.0 in
04:00 15.1 °F 14.6 °F 1002.6 in SSW 4.8 mph 14.5 mph 97 % 1.5 in
04:15 15.1 °F 14.6 °F 1002.6 in SSW 6.4 mph 16.1 mph 97 % 1.8 in
04:30 15.0 °F 14.5 °F 1002.6 in South 4.8 mph 14.5 mph 97 % 2.0 in
04:45 15.0 °F 14.5 °F 1002.6 in SSW 4.8 mph 12.9 mph 97 % 1.5 in
05:00 15.1 °F 14.6 °F 1002.6 in SSW 4.8 mph 14.5 mph 97 % 1.0 in
05:15 15.1 °F 14.6 °F 1002.6 in SSW 3.2 mph 11.3 mph 97 % 0.8 in
05:30 15.1 °F 14.6 °F 1002.3 in SSW 3.2 mph 12.9 mph 97 % 0.5 in
05:45 15.1 °F 14.6 °F 1001.9 in South 3.2 mph 12.9 mph 97 % 0.3 in
06:00 15.1 °F 14.6 °F 1001.9 in SSW 4.8 mph 12.9 mph 97 % 0.0 in
06:15 15.0 °F 14.5 °F 1001.9 in SSW 3.2 mph 12.9 mph 97 % 0.0 in
06:30 15.0 °F 14.5 °F 1001.9 in SSW 3.2 mph 11.3 mph 97 % 0.0 in
06:45 15.0 °F 14.5 °F 1001.9 in SSW 3.2 mph 12.9 mph 97 % 0.3 in
07:00 15.0 °F 14.5 °F 1001.9 in SSW 6.4 mph 16.1 mph 97 % 0.5 in
07:15 15.0 °F 14.5 °F 1001.9 in SSW 6.4 mph 16.1 mph 97 % 0.5 in
07:30 15.0 °F 14.5 °F 1001.9 in SSW 4.8 mph 16.1 mph 97 % 1.0 in
07:45 15.0 °F 14.5 °F 1001.6 in SSW 4.8 mph 14.5 mph 97 % 1.0 in
08:00 14.9 °F 14.5 °F 1001.6 in SSW 3.2 mph 11.3 mph 97 % 1.0 in
08:15 14.9 °F 14.5 °F 1001.6 in SSW 8.0 mph 20.9 mph 97 % 0.8 in
08:30 14.9 °F 14.5 °F 1001.6 in SSW 6.4 mph 19.3 mph 97 % 0.5 in
08:45 14.8 °F 14.1 °F 1001.2 in SSW 6.4 mph 14.5 mph 96 % 0.3 in
08:55 14.7 °F 14.1 °F 1001.2 in South 6.4 mph 20.9 mph 96 % 0.0 in
09:00 14.7 °F 14.1 °F 1001.2 in South 4.8 mph 20.9 mph 96 % 0.0 in
09:05 14.7 °F 14.1 °F 1001.2 in South 4.8 mph 20.9 mph 96 % 0.0 in
09:10 14.7 °F 14.1 °F 1001.2 in SSW 3.2 mph 14.5 mph 96 % 0.0 in
09:15 14.7 °F 14.1 °F 1001.6 in SSW 1.6 mph 14.5 mph 96 % 0.0 in
09:20 14.6 °F 14.0 °F 1001.6 in SSW 3.2 mph 17.7 mph 96 % 0.0 in
09:25 14.6 °F 14.0 °F 1001.6 in SSW 6.4 mph 17.7 mph 96 % 0.3 in
09:30 14.6 °F 14.0 °F 1001.6 in SW 3.2 mph 12.9 mph 96 % 0.3 in
09:35 14.7 °F 14.1 °F 1001.6 in SSW 1.6 mph 11.3 mph 96 % 0.3 in
09:40 14.7 °F 14.1 °F 1001.6 in SSW 4.8 mph 14.5 mph 96 % 0.3 in
09:45 14.7 °F 14.1 °F 1001.6 in South 3.2 mph 14.5 mph 96 % 0.3 in
09:50 14.7 °F 14.1 °F 1001.9 in SSW 6.4 mph 17.7 mph 96 % 0.3 in
09:55 14.7 °F 14.1 °F 1001.6 in SW 4.8 mph 17.7 mph 96 % 0.3 in
10:00 14.7 °F 14.1 °F 1001.9 in SSW 3.2 mph 11.3 mph 96 % 0.3 in
10:05 14.7 °F 14.1 °F 1001.9 in SW 6.4 mph 20.9 mph 96 % 0.3 in
10:10 14.7 °F 14.1 °F 1001.9 in SSW 6.4 mph 20.9 mph 96 % 0.3 in
10:15 14.7 °F 14.1 °F 1001.9 in SSW 8.0 mph 17.7 mph 96 % 0.5 in
10:20 14.7 °F 14.1 °F 1001.9 in SSW 3.2 mph 17.7 mph 96 % 0.5 in
10:25 14.7 °F 14.1 °F 1001.9 in SSW 8.0 mph 22.5 mph 96 % 0.3 in
10:30 14.6 °F 14.0 °F 1001.9 in SSW 6.4 mph 22.5 mph 96 % 0.3 in
10:35 14.6 °F 13.9 °F 1001.9 in SSW 8.0 mph 22.5 mph 96 % 0.3 in
10:40 14.6 °F 13.9 °F 1001.9 in SSW 3.2 mph 20.9 mph 96 % 0.3 in
10:45 14.6 °F 13.9 °F 1001.9 in SSW 6.4 mph 19.3 mph 96 % 0.3 in
10:50 14.6 °F 13.9 °F 1001.9 in South 4.8 mph 19.3 mph 96 % 0.3 in
10:55 14.6 °F 13.9 °F 1001.9 in SSW 3.2 mph 17.7 mph 96 % 0.3 in
11:00 14.6 °F 13.9 °F 1001.9 in SSW 3.2 mph 17.7 mph 96 % 0.3 in
11:05 14.6 °F 13.9 °F 1001.9 in SSW 6.4 mph 16.1 mph 96 % 0.3 in
11:10 14.6 °F 13.9 °F 1002.3 in SSW 4.8 mph 16.1 mph 96 % 0.3 in
11:15 14.6 °F 13.9 °F 1002.3 in SSW 4.8 mph 16.1 mph 96 % 0.0 in
11:20 14.6 °F 13.9 °F 1002.3 in SSW 4.8 mph 17.7 mph 96 % 0.0 in
11:25 14.6 °F 14.0 °F 1002.3 in South 4.8 mph 17.7 mph 96 % 0.0 in
11:30 14.7 °F 14.1 °F 1002.3 in SSW 4.8 mph 16.1 mph 96 % 0.0 in
11:35 14.7 °F 14.1 °F 1002.3 in SSW 4.8 mph 14.5 mph 96 % 0.0 in
11:40 14.8 °F 14.2 °F 1002.3 in SSW 4.8 mph 14.5 mph 96 % 0.0 in
11:45 14.8 °F 14.2 °F 1002.3 in SSW 6.4 mph 16.1 mph 96 % 0.0 in
11:50 14.9 °F 14.3 °F 1002.3 in SW 6.4 mph 16.1 mph 96 % 0.0 in
11:55 14.9 °F 14.3 °F 1002.3 in SSW 6.4 mph 17.7 mph 96 % 0.0 in
12:00 14.9 °F 14.3 °F 1002.6 in SW 4.8 mph 17.7 mph 96 % 0.0 in
12:05 14.8 °F 14.1 °F 1002.6 in SW 4.8 mph 17.7 mph 95 % 0.0 in
12:10 14.8 °F 14.1 °F 1002.6 in SW 6.4 mph 16.1 mph 95 % 0.0 in
12:15 14.8 °F 14.1 °F 1002.3 in SSW 4.8 mph 16.1 mph 95 % 0.0 in
12:20 14.8 °F 14.1 °F 1002.6 in SW 4.8 mph 14.5 mph 95 % 0.0 in
12:25 14.8 °F 14.1 °F 1002.6 in SSW 8.0 mph 19.3 mph 95 % 0.0 in
12:30 14.8 °F 14.1 °F 1002.6 in South 6.4 mph 19.3 mph 95 % 0.0 in
12:35 14.8 °F 14.1 °F 1002.6 in SSW 4.8 mph 16.1 mph 95 % 0.0 in
12:40 14.8 °F 14.1 °F 1002.6 in SSW 4.8 mph 11.3 mph 95 % 0.0 in
12:45 14.9 °F 14.1 °F 1002.6 in SSW 4.8 mph 11.3 mph 95 % 0.0 in
12:50 14.9 °F 14.3 °F 1002.6 in SSW 1.6 mph 11.3 mph 96 % 0.0 in
12:55 15.1 °F 14.4 °F 1002.6 in SSW 3.2 mph 11.3 mph 96 % 0.0 in
13:00 15.1 °F 14.4 °F 1002.6 in SSW 3.2 mph 14.5 mph 96 % 0.0 in
13:05 15.1 °F 14.3 °F 1002.6 in SW 4.8 mph 16.1 mph 95 % 0.0 in
13:10 15.1 °F 14.5 °F 1002.6 in SW 1.6 mph 16.1 mph 96 % 0.0 in
13:15 15.1 °F 14.5 °F 1002.6 in SSW 4.8 mph 12.9 mph 96 % 0.0 in
13:20 15.2 °F 14.6 °F 1002.9 in SSW 1.6 mph 12.9 mph 96 % 0.0 in
13:25 15.2 °F 14.4 °F 1002.9 in SSW 6.4 mph 19.3 mph 95 % 0.0 in
13:30 15.2 °F 14.6 °F 1002.9 in SSW 4.8 mph 19.3 mph 96 % 0.0 in
13:35 15.3 °F 14.6 °F 1002.6 in SSW 4.8 mph 19.3 mph 95 % 0.0 in
13:40 15.4 °F 14.6 °F 1002.9 in SW 4.8 mph 14.5 mph 95 % 0.0 in
13:45 15.5 °F 14.7 °F 1002.9 in SSW 4.8 mph 12.9 mph 95 % 0.0 in
13:50 15.6 °F 14.8 °F 1002.9 in SSW 6.4 mph 17.7 mph 95 % 0.0 in
13:55 15.7 °F 14.8 °F 1002.9 in SSW 6.4 mph 17.7 mph 94 % 0.0 in
14:00 15.8 °F 14.9 °F 1003.3 in SSW 3.2 mph 16.1 mph 94 % 0.0 in
14:05 15.8 °F 14.9 °F 1003.3 in SSW 3.2 mph 12.9 mph 94 % 0.0 in
14:10 15.8 °F 14.7 °F 1003.3 in SSW 6.4 mph 19.3 mph 93 % 0.0 in
14:15 15.8 °F 14.7 °F 1003.3 in SSW 3.2 mph 19.3 mph 93 % 0.0 in
14:20 15.8 °F 14.7 °F 1003.3 in SSW 1.6 mph 19.3 mph 93 % 0.0 in
14:25 15.9 °F 14.9 °F 1003.6 in South 1.6 mph 11.3 mph 94 % 0.0 in
14:30 15.9 °F 14.8 °F 1003.6 in SSW 4.8 mph 12.9 mph 93 % 0.0 in
14:35 16.1 °F 14.8 °F 1003.6 in SSW 6.4 mph 12.9 mph 92 % 0.0 in
14:40 16.1 °F 14.8 °F 1003.6 in SW 6.4 mph 16.1 mph 92 % 0.0 in
14:45 16.1 °F 14.8 °F 1003.6 in SSW 4.8 mph 16.1 mph 92 % 0.0 in
14:50 16.2 °F 14.7 °F 1003.6 in SSW 6.4 mph 12.9 mph 91 % 0.0 in
14:55 16.2 °F 14.9 °F 1003.6 in SSW 4.8 mph 12.9 mph 92 % 0.0 in
15:00 16.1 °F 14.8 °F 1003.6 in SSW 3.2 mph 16.1 mph 92 % 0.0 in
15:05 16.1 °F 14.8 °F 1003.6 in SSW 4.8 mph 17.7 mph 92 % 0.0 in
15:10 16.2 °F 14.9 °F 1003.6 in SSW 3.2 mph 17.7 mph 92 % 0.0 in
15:15 16.2 °F 14.8 °F 1003.6 in SW 6.4 mph 12.9 mph 91 % 0.0 in
15:20 16.3 °F 14.8 °F 1003.6 in SSW 6.4 mph 16.1 mph 91 % 0.0 in
15:25 16.4 °F 14.9 °F 1003.6 in SSW 6.4 mph 16.1 mph 91 % 0.0 in
15:30 16.5 °F 15.0 °F 1003.6 in SW 4.8 mph 17.7 mph 91 % 0.0 in
15:35 16.6 °F 14.9 °F 1003.6 in SW 4.8 mph 17.7 mph 90 % 0.0 in
15:40 16.7 °F 15.0 °F 1003.9 in SW 3.2 mph 12.9 mph 90 % 0.0 in
15:45 16.7 °F 14.9 °F 1003.9 in SW 6.4 mph 14.5 mph 89 % 0.0 in
15:50 16.8 °F 14.9 °F 1003.9 in SW 3.2 mph 14.5 mph 89 % 0.0 in
15:55 16.8 °F 14.8 °F 1003.9 in SSW 3.2 mph 11.3 mph 88 % 0.0 in
16:00 16.9 °F 14.9 °F 1003.9 in South 3.2 mph 14.5 mph 88 % 0.0 in
16:05 16.9 °F 14.9 °F 1003.9 in South 4.8 mph 14.5 mph 88 % 0.0 in
16:10 16.9 °F 14.8 °F 1004.3 in SSW 6.4 mph 16.1 mph 87 % 0.0 in
16:15 17.1 °F 14.7 °F 1004.3 in SSW 4.8 mph 16.1 mph 86 % 0.0 in
16:20 17.3 °F 14.9 °F 1004.3 in SSW 1.6 mph 14.5 mph 86 % 0.0 in
16:25 17.5 °F 14.8 °F 1004.3 in SSW 8.0 mph 17.7 mph 84 % 0.0 in
16:30 17.5 °F 14.6 °F 1004.3 in South 6.4 mph 20.9 mph 83 % 0.0 in
16:35 17.3 °F 14.6 °F 1004.3 in SSW 4.8 mph 20.9 mph 84 % 0.3 in
16:40 17.2 °F 14.6 °F 1004.6 in SSW 3.2 mph 14.5 mph 85 % 0.3 in
16:45 17.0 °F 14.7 °F 1004.3 in SSW 3.2 mph 14.5 mph 86 % 0.3 in
16:50 16.9 °F 14.8 °F 1004.6 in SW 3.2 mph 12.9 mph 87 % 0.3 in
16:55 16.9 °F 14.8 °F 1004.6 in SW 1.6 mph 9.7 mph 87 % 0.3 in
17:00 17.2 °F 14.4 °F 1004.6 in SW 4.8 mph 11.3 mph 84 % 0.3 in
17:05 17.3 °F 14.6 °F 1004.6 in SSW 4.8 mph 12.9 mph 84 % 0.3 in
17:10 17.2 °F 14.4 °F 1004.6 in SSW 1.6 mph 12.9 mph 84 % 0.3 in
17:15 17.1 °F 14.0 °F 1004.6 in SW 3.2 mph 9.7 mph 82 % 0.3 in
17:20 17.2 °F 14.3 °F 1004.6 in SSW 1.6 mph 9.7 mph 83 % 0.3 in
17:25 17.4 °F 14.7 °F 1004.6 in SSE 1.6 mph 8.0 mph 84 % 0.3 in
17:30 17.7 °F 14.4 °F 1004.6 in SSW 1.6 mph 11.3 mph 81 % 0.3 in
17:35 17.9 °F 14.4 °F 1004.6 in SW 1.6 mph 11.3 mph 80 % 0.0 in
17:40 17.8 °F 14.2 °F 1004.6 in SSW 3.2 mph 11.3 mph 79 % 0.0 in
17:45 17.8 °F 14.5 °F 1005.0 in South 3.2 mph 11.3 mph 81 % 0.0 in
17:50 17.8 °F 14.5 °F 1005.0 in South 4.8 mph 16.1 mph 81 % 0.0 in
17:55 17.6 °F 14.5 °F 1005.0 in South 3.2 mph 16.1 mph 82 % 0.0 in
18:00 17.4 °F 13.9 °F 1005.0 in SSW 3.2 mph 17.7 mph 80 % 0.0 in
18:05 17.2 °F 14.1 °F 1005.0 in SSW 1.6 mph 17.7 mph 82 % 0.0 in
18:10 17.1 °F 13.9 °F 1005.0 in SSW 3.2 mph 14.5 mph 82 % 0.0 in
18:15 17.0 °F 13.9 °F 1005.0 in South 3.2 mph 14.5 mph 82 % 0.0 in
18:20 16.9 °F 13.8 °F 1005.3 in SSW 1.6 mph 11.3 mph 82 % 0.0 in
18:25 16.9 °F 13.7 °F 1005.3 in SW 4.8 mph 12.9 mph 81 % 0.0 in
18:30 16.9 °F 13.7 °F 1005.3 in SSW 3.2 mph 12.9 mph 81 % 0.0 in
18:35 16.9 °F 13.6 °F 1005.3 in South 4.8 mph 11.3 mph 81 % 0.0 in
18:40 16.7 °F 13.4 °F 1005.3 in South 4.8 mph 11.3 mph 81 % 0.0 in
18:45 16.6 °F 13.4 °F 1005.3 in SSW 4.8 mph 12.9 mph 82 % 0.0 in
18:50 16.4 °F 13.3 °F 1005.3 in South 4.8 mph 12.9 mph 82 % 0.0 in
18:55 16.3 °F 13.4 °F 1005.6 in South 4.8 mph 12.9 mph 83 % 0.0 in
19:00 16.2 °F 13.3 °F 1005.6 in SSW 3.2 mph 11.3 mph 83 % 0.0 in
19:05 16.1 °F 13.3 °F 1005.6 in SSW 1.6 mph 12.9 mph 84 % 0.0 in
19:10 15.9 °F 13.2 °F 1005.6 in SSW 1.6 mph 12.9 mph 84 % 0.0 in
19:15 15.8 °F 12.9 °F 1005.6 in SW 3.2 mph 9.7 mph 83 % 0.0 in
19:20 15.7 °F 13.0 °F 1005.6 in SSW 1.6 mph 11.3 mph 84 % 0.0 in
19:25 15.6 °F 12.9 °F 1005.6 in SSW 1.6 mph 11.3 mph 84 % 0.0 in
19:30 15.5 °F 12.8 °F 1005.6 in SSW 1.6 mph 8.0 mph 84 % 0.0 in
19:35 15.3 °F 12.8 °F 1005.6 in SSW 1.6 mph 8.0 mph 85 % 0.0 in
19:40 15.2 °F 12.7 °F 1005.6 in SW 1.6 mph 8.0 mph 85 % 0.0 in
19:45 15.1 °F 12.6 °F 1005.6 in SW 1.6 mph 6.4 mph 85 % 0.0 in
19:50 14.9 °F 12.6 °F 1006.0 in Calm   6.4 mph 86 % 0.0 in
19:55 14.7 °F 12.4 °F 1006.0 in SSW 1.6 mph 8.0 mph 86 % 0.0 in
20:00 14.6 °F 12.4 °F 1006.0 in SSW 1.6 mph 8.0 mph 87 % 0.0 in
20:05 14.6 °F 12.4 °F 1006.0 in Calm   4.8 mph 87 % 0.0 in
20:10 14.4 °F 12.5 °F 1006.0 in Calm   1.6 mph 88 % 0.0 in
20:15 14.3 °F 12.3 °F 1006.3 in Calm   1.6 mph 88 % 0.0 in
20:20 14.2 °F 12.4 °F 1006.3 in Calm   1.6 mph 89 % 0.0 in
20:25 13.9 °F 12.2 °F 1006.3 in Calm   1.6 mph 89 % 0.0 in
20:30 13.8 °F 12.0 °F 1006.3 in Calm   3.2 mph 89 % 0.0 in
20:35 13.7 °F 12.1 °F 1006.3 in Calm   3.2 mph 90 % 0.0 in
20:40 13.5 °F 11.9 °F 1006.3 in Calm     90 % 0.0 in
20:45 13.3 °F 11.9 °F 1006.7 in Calm     91 % 0.0 in
20:50 13.1 °F 11.7 °F 1006.7 in Calm     91 % 0.0 in
20:55 12.9 °F 11.7 °F 1006.7 in Calm     92 % 0.0 in
21:00 12.8 °F 11.5 °F 1006.7 in Calm   3.2 mph 92 % 0.0 in
21:05 12.7 °F 11.6 °F 1006.7 in SSW 1.6 mph 6.4 mph 93 % 0.0 in
21:10 12.6 °F 11.5 °F 1007.0 in Calm   6.4 mph 93 % 0.0 in
21:15 12.6 °F 11.4 °F 1007.0 in Calm   4.8 mph 93 % 0.0 in
21:20 12.5 °F 11.4 °F 1006.7 in Calm   4.8 mph 93 % 0.0 in
21:25 12.4 °F 11.3 °F 1006.7 in Calm     93 % 0.0 in
21:30 12.3 °F 11.2 °F 1006.7 in Calm     93 % 0.0 in
21:35 12.2 °F 11.2 °F 1007.0 in Calm     94 % 0.0 in
21:40 12.1 °F 11.2 °F 1007.0 in Calm     94 % 0.0 in
21:45 12.1 °F 11.1 °F 1007.0 in Calm     94 % 0.0 in
21:50 12.0 °F 11.1 °F 1007.0 in Calm     94 % 0.0 in
21:55 12.0 °F 11.2 °F 1006.7 in Calm     95 % 0.0 in
22:00 12.0 °F 11.2 °F 1007.0 in Calm     95 % 0.0 in
22:05 12.1 °F 11.3 °F 1007.0 in Calm     95 % 0.0 in
22:10 12.1 °F 11.3 °F 1007.0 in Calm     95 % 0.0 in
22:15 12.0 °F 11.2 °F 1007.0 in Calm   3.2 mph 95 % 0.0 in
22:20 12.0 °F 11.2 °F 1007.0 in Calm   3.2 mph 95 % 0.0 in
22:25 12.0 °F 11.2 °F 1007.0 in Calm   3.2 mph 95 % 0.0 in
22:30 12.0 °F 11.2 °F 1007.0 in Calm   3.2 mph 95 % 0.0 in
22:35 12.0 °F 11.2 °F 1007.0 in Calm   6.4 mph 95 % 0.0 in
22:40 12.0 °F 11.2 °F 1007.0 in SSW 1.6 mph 6.4 mph 95 % 0.0 in
22:45 12.0 °F 11.2 °F 1007.0 in SSW 1.6 mph 9.7 mph 95 % 0.0 in
22:50 12.0 °F 11.2 °F 1007.0 in Calm   9.7 mph 95 % 0.0 in
22:55 11.9 °F 11.2 °F 1007.0 in SSW 1.6 mph 6.4 mph 95 % 0.0 in
23:00 11.9 °F 11.2 °F 1007.3 in Calm   9.7 mph 95 % 0.0 in
23:05 11.9 °F 11.3 °F 1007.3 in SW 1.6 mph 9.7 mph 96 % 0.0 in
23:10 11.8 °F 11.1 °F 1007.3 in Calm   6.4 mph 95 % 0.0 in
23:15 11.8 °F 11.2 °F 1007.3 in Calm   6.4 mph 96 % 0.0 in
23:20 11.8 °F 11.0 °F 1007.3 in Calm   6.4 mph 95 % 0.0 in
23:25 11.7 °F 10.9 °F 1007.3 in Calm   3.2 mph 95 % 0.0 in
23:30 11.7 °F 11.1 °F 1007.3 in Calm   4.8 mph 96 % 0.0 in
23:35 11.7 °F 11.1 °F 1007.3 in Calm   4.8 mph 96 % 0.0 in
23:40 11.6 °F 11.0 °F 1007.3 in Calm     96 % 0.0 in
23:45 11.6 °F 10.9 °F 1007.3 in Calm     96 % 0.0 in
23:50 11.6 °F 10.9 °F 1007.3 in Calm     96 % 0.0 in
23:55 11.5 °F 10.7 °F 1007.3 in Calm     95 % 0.0 in
Esan sääasema
Terveisin Weather Underground - 3.5 mb

Alkuperäinen skripti  Jim McMurry - jmcmurry@mwt.net Sovitettu myös templatelle  Wim van der Kuil - Leuven-Template.eu

Laitteet joita käytämme:

Sääasema
Davis VP2

Sääasemaohjelma
Cumulus

Sääaseman tietokone
Asus EeePC

Palveluntarjoaja
Suncomet

Davis VP2

Cumulus

Asus EeePC

Suncomet